This is the latest recevied weather packets stored in our database for station/object KBTL-WX. If no packets are shown the sender has not sent any weather packets the latest 10 day(s).
| Time | Temp. | Humidity | Pressure | Rain* | Wind** | Luminosity | Snow |
|---|---|---|---|---|---|---|---|
| 1777409115 | 13.33° C | 73% | 979.3 hPa | 0 mm | - | - | - |
| 1777408230 | 12.78° C | 78% | 979.1 hPa | 0 mm | - | - | - |
| 1777407312 | 12.22° C | 78% | 979 hPa | 0 mm | - | - | - |
| 1777406435 | 12.78° C | 68% | 979 hPa | 0 mm | - | - | - |
| 1777405512 | 12.22° C | 78% | 978.6 hPa | 0 mm | - | - | - |
| 1777404627 | 12.22° C | 78% | 978.6 hPa | 0 mm | - | - | - |
| 1777403712 | 12.22° C | 78% | 978.6 hPa | 0 mm | - | - | - |
| 1777402834 | 12.22° C | 78% | 978.6 hPa | 0 mm | - | - | - |
| 1777401912 | 12.22° C | 84% | 978.8 hPa | 0 mm | - | - | - |
| 1777401027 | 11.11° C | 84% | 978.4 hPa | 0 mm | - | - | - |
| 1777400112 | 10.56° C | 84% | 978.4 hPa | 0 mm | - | - | - |
| 1777399237 | 10.56° C | 84% | 978.4 hPa | 0 mm | - | - | - |
| 1777398312 | 11.11° C | 82% | 978.4 hPa | 0 mm | - | - | - |
| 1777397429 | 11.11° C | 86% | 978.1 hPa | 0 mm | - | - | - |
| 1777396512 | 11.11° C | 86% | 978.1 hPa | 0 mm | - | - | - |
| 1777395633 | 11.11° C | 86% | 978.1 hPa | 0 mm | - | - | - |
| 1777394712 | 11.67° C | 81% | 978 hPa | 0 mm | - | - | - |
| 1777393827 | 11.11° C | 79% | 977.5 hPa | 0 mm | - | - | - |
| 1777392912 | 11.67° C | 79% | 977.5 hPa | 0 mm | - | - | - |
| 1777392036 | 12.22° C | 79% | 977.5 hPa | 0 mm | - | - | - |
| 1777391112 | 11.67° C | 84% | 977.1 hPa | 0 mm | - | - | - |
| 1777390231 | 11.67° C | 88% | 977.2 hPa | 0 mm | - | - | - |
| 1777389312 | 10.56° C | 88% | 977.2 hPa | 0 mm | - | - | - |
| 1777388438 | 10.56° C | 88% | 977.2 hPa | 0 mm | - | - | - |
| 1777387512 | 11.11° C | 85% | 975.7 hPa | 0 mm | - | - | - |
* Rain latest hour (hover to see other rain measurements)
** Current wind speed in m/s (hover to see current wind gust speed)